EW1762 Weather Reports


Display with metric or nautical units.
time (UTC)temp
F
wind
direction
speed
MPH
gust
MPH
rain 1hr
in
rain 24hr
in
rain mn
in
humidity
%
barometer
mb
20260505011113 65 153 1.0 10.0 0.00 0.00 0.00 61 1009.3
20260505010612 65 175 1.0 7.0 0.00 0.00 0.00 61 1009.2
20260505010110 65 180 0.0 5.0 0.00 0.00 0.00 60 1009.2
20260505005611 65 180 0.0 5.0 0.00 0.00 0.00 59 1009.2
20260505005109 65 188 0.0 0.0 0.00 0.00 0.00 59 1009.2
20260505004609 65 188 0.0 0.0 0.00 0.00 0.00 58 1009.1
20260505004107 65 232 0.0 4.0 0.00 0.00 0.00 57 1009.1
20260505003606 65 246 0.0 4.0 0.00 0.00 0.00 57 1009.1
20260505003105 65 167 0.0 5.0 0.00 0.00 0.00 57 1009.1
20260505002603 65 155 0.0 5.0 0.00 0.00 0.00 57 1009.1
20260505002104 65 202 0.0 5.0 0.00 0.00 0.00 57 1009.0
20260505001604 65 175 0.0 5.0 0.00 0.00 0.00 57 1009.0
20260505001332 65 168 0.0 5.0 0.00 0.00 0.00 57 1009.0
20260505000603 65 155 0.0 3.0 0.00 0.00 0.00 58 1009.0
20260505000056 65 199 0.0 2.0 0.00 0.00 0.00 59 1009.0
20260504235556 66 196 0.0 5.0 0.00 0.00 0.00 59 1009.0
20260504235056 66 164 1.0 5.0 0.00 0.00 0.00 59 1009.0
20260504234558 66 231 1.0 5.0 0.00 0.00 0.00 60 1009.1
20260504234056 66 161 1.0 9.0 0.00 0.00 0.00 60 1009.0
20260504233555 66 161 1.0 9.0 0.00 0.00 0.00 59 1009.0
20260504233051 67 178 1.0 8.0 0.00 0.00 0.00 58 1009.1
20260504232553 67 174 1.0 8.0 0.00 0.00 0.00 56 1009.1
20260504232052 67 184 1.0 6.0 0.00 0.00 0.00 55 1009.0
20260504231821 68 192 1.0 7.0 0.00 0.00 0.00 54 1009.0
20260504231049 68 174 1.0 8.0 0.00 0.00 0.00 53 1009.0
20260504230550 69 204 1.0 8.0 0.00 0.00 0.00 52 1009.2
20260504230044 69 206 1.0 7.0 0.00 0.00 0.00 50 1009.1
20260504225545 69 214 2.0 6.0 0.00 0.00 0.00 48 1009.0
20260504225540 69 169 2.0 6.0 0.00 0.00 0.00 48 1009.0
20260504224537 69 167 2.0 10.0 0.00 0.00 0.00 47 1009.0
20260504224036 70 157 2.0 12.0 0.00 0.00 0.00 45 1008.9
20260504223531 71 148 2.0 13.0 0.00 0.00 0.00 43 1008.9
20260504223031 71 164 2.0 13.0 0.00 0.00 0.00 40 1009.0
20260504222531 71 224 3.0 13.0 0.00 0.00 0.00 39 1009.0
20260504222304 71 184 2.0 13.0 0.00 0.00 0.00 38 1009.0
20260504222151 72 145 2.0 11.0 0.00 0.00 0.00 38 1008.9
20260504221033 72 153 3.0 16.0 0.00 0.00 0.00 38 1008.9
20260504220530 72 212 4.0 16.0 0.00 0.00 0.00 37 1009.0
20260504220257 72 157 2.0 10.0 0.00 0.00 0.00 38 1008.9
20260504215525 72 161 1.0 9.0 0.00 0.00 0.00 37 1009.0
20260504215026 72 170 1.0 8.0 0.00 0.00 0.00 37 1009.0
20260504214525 72 162 3.0 12.0 0.00 0.00 0.00 36 1009.0
20260504214257 72 165 4.0 16.0 0.00 0.00 0.00 36 1009.1
20260504213524 72 155 4.0 16.0 0.00 0.00 0.00 36 1009.0
20260504213022 72 140 3.0 15.0 0.00 0.00 0.00 36 1009.1
20260504212523 72 193 1.0 9.0 0.00 0.00 0.00 35 1009.0
20260504212026 72 150 2.0 13.0 0.00 0.00 0.00 35 1009.0
20260504211523 72 132 2.0 13.0 0.00 0.00 0.00 37 1009.0
20260504211023 72 198 2.0 12.0 0.00 0.00 0.00 35 1009.0
20260504210523 72 193 2.0 9.0 0.00 0.00 0.00 36 1009.1
20260504210019 72 193 2.0 10.0 0.00 0.00 0.00 35 1009.1
20260504205518 73 191 1.0 10.0 0.00 0.00 0.00 35 1009.1
20260504205017 73 178 2.0 9.0 0.00 0.00 0.00 36 1009.1
20260504204520 73 150 2.0 9.0 0.00 0.00 0.00 36 1009.2
20260504204017 73 165 1.0 8.0 0.00 0.00 0.00 36 1009.3
20260504203519 72 159 2.0 10.0 0.00 0.00 0.00 37 1009.3
20260504203014 72 140 2.0 10.0 0.00 0.00 0.00 36 1009.4
20260504202514 72 176 2.0 10.0 0.00 0.00 0.00 35 1009.4
20260504202014 72 144 2.0 10.0 0.00 0.00 0.00 36 1009.5
20260504201745 72 153 3.0 10.0 0.00 0.00 0.00 35 1009.5
20260504201014 72 121 4.0 10.0 0.00 0.00 0.00 35 1009.6
20260504200518 73 119 3.0 11.0 0.00 0.00 0.00 36 1009.8
20260504200514 73 150 3.0 10.0 0.00 0.00 0.00 35 1009.7
20260504195742 72 162 3.0 14.0 0.00 0.00 0.00 35 1009.9
20260504195008 72 171 3.0 14.0 0.00 0.00 0.00 34 1010.0
20260504194738 72 180 2.0 12.0 0.00 0.00 0.00 35 1010.1
20260504194004 72 221 2.0 11.0 0.00 0.00 0.00 34 1010.2
20260504193504 71 149 2.0 10.0 0.00 0.00 0.00 35 1010.3
20260504193005 71 187 2.0 10.0 0.00 0.00 0.00 35 1010.4
20260504192506 71 186 2.0 10.0 0.00 0.00 0.00 36 1010.4
20260504192001 72 183 1.0 10.0 0.00 0.00 0.00 35 1010.5
20260504191504 72 143 1.0 5.0 0.00 0.00 0.00 36 1010.8
20260504191459 72 124 0.0 10.0 0.00 0.00 0.00 35 1010.6
20260504190501 71 184 1.0 12.0 0.00 0.00 0.00 36 1010.8
20260504190230 71 153 2.0 12.0 0.00 0.00 0.00 38 1010.9
20260504185732 71 140 3.0 11.0 0.00 0.00 0.00 35 1010.9
20260504185225 71 155 2.0 11.0 0.00 0.00 0.00 37 1011.0
20260504184454 71 191 3.0 11.0 0.00 0.00 0.00 37 1011.1
20260504183954 71 157 2.0 10.0 0.00 0.00 0.00 37 1011.1
20260504183454 70 213 1.0 8.0 0.00 0.00 0.00 35 1011.1
20260504182954 70 215 2.0 9.0 0.00 0.00 0.00 36 1011.0
20260504182454 70 171 3.0 10.0 0.00 0.00 0.00 35 1011.0
20260504181949 70 171 3.0 10.0 0.00 0.00 0.00 37 1011.1
20260504181725 70 162 2.0 9.0 0.00 0.00 0.00 36 1011.4
20260504181450 70 171 2.0 10.0 0.00 0.00 0.00 37 1011.2
20260504180720 69 156 2.0 9.0 0.00 0.00 0.00 37 1011.4
20260504175950 69 188 1.0 8.0 0.00 0.00 0.00 36 1011.5
20260504175451 69 226 1.0 7.0 0.00 0.00 0.00 37 1011.5
20260504174951 69 186 2.0 10.0 0.00 0.00 0.00 37 1011.6
20260504174434 69 143 3.0 12.0 0.00 0.00 0.00 37 1011.7
20260504173936 69 248 3.0 12.0 0.00 0.00 0.00 37 1011.7
20260504173438 69 170 2.0 6.0 0.00 0.00 0.00 38 1011.8
20260504172935 69 166 1.0 7.0 0.00 0.00 0.00 37 1011.8
20260504172432 68 160 2.0 11.0 0.00 0.00 0.00 38 1011.8
20260504171932 69 212 2.0 11.0 0.00 0.00 0.00 37 1011.8
20260504171430 69 227 2.0 10.0 0.00 0.00 0.00 36 1011.9
20260504170930 69 175 2.0 10.0 0.00 0.00 0.00 38 1011.9
20260504170430 69 193 1.0 10.0 0.00 0.00 0.00 37 1012.0
20260504160415 67 152 0.0 5.0 0.00 0.00 0.00 46 1013.0
20260504160146 66 202 1.0 8.0 0.00 0.00 0.00 46 1013.1
20260504150858 64 169 1.0 7.0 0.00 0.00 0.00 48 1013.5
20260504150356 64 150 1.0 7.0 0.00 0.00 0.00 47 1013.5
20260504150130 64 164 0.0 5.0 0.00 0.00 0.00 48 1013.6
20260504141119 62 144 1.0 7.0 0.00 0.00 0.00 51 1013.7
20260504140348 61 244 1.0 6.0 0.00 0.00 0.00 51 1013.7
20260504130329 59 146 1.0 10.0 0.00 0.00 0.00 54 1014.1
20260504120317 54 190 0.0 0.0 0.00 0.00 0.00 66 1014.3
20260504110531 42 306 0.0 0.0 0.00 0.00 0.00 91 1014.6
20260504100249 40 273 0.0 0.0 0.00 0.00 0.00 91 1014.5
20260504081727 40 273 0.0 0.0 0.00 0.00 0.00 90 1014.8
20260504081227 40 273 0.0 0.0 0.00 0.00 0.00 90 1014.7
20260504080724 40 273 0.0 0.0 0.00 0.00 0.00 89 1014.8
20260504080224 40 273 0.0 0.0 0.00 0.00 0.00 89 1014.8
20260504070210 41 273 0.0 0.0 0.00 0.00 0.00 89 1014.8
20260504060154 41 273 0.0 0.0 0.00 0.00 0.00 88 1014.8
20260504050642 41 273 0.0 0.0 0.00 0.00 0.00 86 1015.0
20260504050142 41 273 0.0 0.0 0.00 0.00 0.00 86 1015.1
20260504045915 41 273 0.0 0.0 0.00 0.00 0.00 85 1015.0
20260504045144 41 273 0.0 0.0 0.00 0.00 0.00 85 1015.0
20260504044643 41 274 0.0 0.0 0.00 0.00 0.00 84 1015.0
20260504044139 41 273 0.0 0.0 0.00 0.00 0.00 84 1015.0
20260504043635 42 273 0.0 0.0 0.00 0.00 0.00 84 1015.0
20260504043135 42 273 0.0 0.0 0.00 0.00 0.00 84 1015.0
20260504042635 42 273 0.0 0.0 0.00 0.00 0.00 83 1015.0
20260504042132 42 273 0.0 0.0 0.00 0.00 0.00 83 1014.7
20260504041638 42 273 0.0 0.0 0.00 0.00 0.00 83 1014.6
20260504041633 42 274 0.0 0.0 0.00 0.00 0.00 84 1014.6
20260504040631 42 274 0.0 0.0 0.00 0.00 0.00 82 1014.8
20260504040131 42 273 0.0 0.0 0.00 0.00 0.00 82 1014.7
20260504035901 42 273 0.0 0.0 0.00 0.00 0.00 82 1014.6
20260504035130 42 273 0.0 0.0 0.00 0.00 0.00 82 1014.6
20260504034629 43 273 0.0 0.0 0.00 0.00 0.00 82 1014.6
20260504034130 43 274 0.0 0.0 0.00 0.00 0.00 82 1014.5
20260504033632 43 273 0.0 0.0 0.00 0.00 0.00 81 1014.4
20260504033126 43 274 0.0 0.0 0.00 0.00 0.00 81 1014.4
20260504032626 43 273 0.0 0.0 0.00 0.00 0.00 80 1014.3
20260504032123 43 274 0.0 0.0 0.00 0.00 0.00 80 1014.3
20260504031626 44 274 0.0 0.0 0.00 0.00 0.00 80 1014.3
20260504031124 44 274 0.0 0.0 0.00 0.00 0.00 79 1014.2
20260504030624 44 273 0.0 0.0 0.00 0.00 0.00 78 1014.2
20260504030122 44 273 0.0 0.0 0.00 0.00 0.00 77 1014.3
20260504025620 44 273 0.0 0.0 0.00 0.00 0.00 76 1014.3
20260504025118 45 274 0.0 0.0 0.00 0.00 0.00 76 1014.3
20260504024618 45 273 0.0 0.0 0.00 0.00 0.00 75 1014.3
20260504024115 45 274 0.0 0.0 0.00 0.00 0.00 75 1014.2
20260504023615 46 273 0.0 0.0 0.00 0.00 0.00 73 1014.1
20260504023350 46 273 0.0 0.0 0.00 0.00 0.00 71 1014.2
20260504022613 46 273 0.0 0.0 0.00 0.00 0.00 71 1014.2
20260504022342 46 273 0.0 0.0 0.00 0.00 0.00 70 1014.2
20260504021604 47 274 0.0 0.0 0.00 0.00 0.00 71 1014.1
20260504021104 47 273 0.0 0.0 0.00 0.00 0.00 70 1014.2
20260504020837 47 273 0.0 0.0 0.00 0.00 0.00 69 1014.2
20260504020106 47 274 0.0 0.0 0.00 0.00 0.00 68 1014.2
20260504015606 47 274 0.0 0.0 0.00 0.00 0.00 66 1014.1
20260504015106 48 274 0.0 0.0 0.00 0.00 0.00 67 1014.1
20260504014604 48 273 0.0 0.0 0.00 0.00 0.00 65 1014.1
20260504014105 48 273 0.0 0.0 0.00 0.00 0.00 64 1014.0
20260504013605 49 274 0.0 0.0 0.00 0.00 0.00 63 1014.1
20260504013105 49 274 0.0 0.0 0.00 0.00 0.00 63 1014.0
20260504012842 49 274 0.0 0.0 0.00 0.00 0.00 63 1014.0
20260504012100 50 273 0.0 0.0 0.00 0.00 0.00 63 1013.8
20260504011601 50 274 0.0 0.0 0.00 0.00 0.00 62 1013.9